This is the latest recevied weather packets stored in our database for station/object W2JGA. If no packets are shown the sender has not sent any weather packets the latest 10 day(s).
| Time | Temp. | Humidity | Pressure | Rain* | Wind** | Luminosity | Snow |
|---|---|---|---|---|---|---|---|
| 1778018892 | 23.89° C | 36% | 1012.9 hPa | 0 mm | - | 646 W/m² | - |
| 1778018589 | 22.78° C | 37% | 1012.9 hPa | 0 mm | - | 689 W/m² | - |
| 1778018287 | 23.33° C | 37% | 1013.2 hPa | 0 mm | - | 132 W/m² | - |
| 1778017984 | 23.89° C | 37% | 1012.9 hPa | 0 mm | - | 131 W/m² | - |
| 1778017682 | 23.33° C | 39% | 1013.2 hPa | 0 mm | - | 159 W/m² | - |
| 1778017379 | 23.89° C | 38% | 1013.2 hPa | 0 mm | - | 704 W/m² | - |
| 1778017076 | 23.89° C | 37% | 1013.2 hPa | 0 mm | - | 717 W/m² | - |
| 1778016774 | 23.89° C | 38% | 1013.2 hPa | 0 mm | - | 721 W/m² | - |
| 1778016469 | 23.89° C | 37% | 1013.2 hPa | 0 mm | - | 711 W/m² | - |
| 1778016167 | 23.89° C | 37% | 1013.6 hPa | 0 mm | - | 688 W/m² | - |
| 1778015864 | 23.89° C | 35% | 1013.6 hPa | 0 mm | - | 678 W/m² | - |
| 1778015561 | 23.89° C | 36% | 1013.2 hPa | 0 mm | - | 695 W/m² | - |
| 1778015257 | 23.89° C | 38% | 1013.6 hPa | 0 mm | - | 711 W/m² | - |
| 1778014954 | 23.89° C | 38% | 1013.6 hPa | 0 mm | - | 721 W/m² | - |
| 1778014652 | 23.89° C | 40% | 1013.6 hPa | 0 mm | - | 692 W/m² | - |
| 1778014350 | 23.89° C | 40% | 1013.2 hPa | 0 mm | - | 716 W/m² | - |
| 1778014046 | 23.89° C | 39% | 1013.9 hPa | 0 mm | - | 763 W/m² | - |
| 1778013744 | 23.33° C | 40% | 1013.6 hPa | 0 mm | - | 747 W/m² | - |
| 1778013441 | 23.33° C | 42% | 1013.6 hPa | 0 mm | - | 749 W/m² | - |
| 1778013138 | 23.33° C | 41% | 1013.6 hPa | 0 mm | - | 727 W/m² | - |
| 1778012833 | 23.89° C | 41% | 1013.6 hPa | 0 mm | - | 747 W/m² | - |
| 1778012530 | 23.89° C | 42% | 1013.6 hPa | 0 mm | - | 766 W/m² | - |
| 1778012226 | 23.89° C | 42% | 1013.6 hPa | 0 mm | - | 776 W/m² | - |
| 1778011924 | 23.89° C | 41% | 1013.9 hPa | 0 mm | - | 789 W/m² | - |
| 1778011622 | 23.89° C | 41% | 1013.6 hPa | 0 mm | - | 829 W/m² | - |
* Rain latest hour (hover to see other rain measurements)
** Current wind speed in m/s (hover to see current wind gust speed)